| time (UTC) | temp F | wind direction | speed MPH | gust MPH | rain 1hr in | rain 24hr in | rain mn in | humidity % | barometer mb |
| 20260506134423 | 47 | 0 | 5.0 | 8.0 | 0.00 | 0.00 | 0.00 | 63 | 1015.7 |
| 20260506133920 | 46 | 309 | 4.0 | 6.0 | 0.00 | 0.00 | 0.00 | 65 | 1015.8 |
| 20260506133417 | 46 | 31 | 1.0 | 2.0 | 0.00 | 0.00 | 0.00 | 67 | 1015.8 |
| 20260506132914 | 46 | 267 | 1.0 | 1.0 | 0.00 | 0.00 | 0.00 | 68 | 1015.7 |
| 20260506132411 | 46 | 287 | 1.0 | 2.0 | 0.00 | 0.00 | 0.00 | 69 | 1015.5 |
| 20260506131909 | 46 | 317 | 1.0 | 1.0 | 0.00 | 0.00 | 0.00 | 69 | 1015.6 |
| 20260506131405 | 45 | 22 | 1.0 | 2.0 | 0.00 | 0.00 | 0.00 | 69 | 1015.7 |
| 20260506130902 | 45 | 346 | 3.0 | 5.0 | 0.00 | 0.00 | 0.00 | 69 | 1015.4 |
| 20260506130358 | 45 | 289 | 0.0 | 1.0 | 0.00 | 0.00 | 0.00 | 70 | 1015.8 |
| 20260506125857 | 45 | 343 | 1.0 | 2.0 | 0.00 | 0.00 | 0.00 | 70 | 1015.7 |
| 20260506125355 | 45 | 350 | 0.0 | 1.0 | 0.00 | 0.00 | 0.00 | 71 | 1015.7 |
| 20260506124853 | 45 | 270 | 1.0 | 1.0 | 0.00 | 0.00 | 0.00 | 70 | 1015.5 |
| 20260506124349 | 45 | 246 | 2.0 | 3.0 | 0.00 | 0.00 | 0.00 | 70 | 1015.7 |
| 20260506123847 | 45 | 240 | 1.0 | 1.0 | 0.00 | 0.00 | 0.00 | 70 | 1015.7 |
| 20260506123345 | 44 | 336 | 4.0 | 5.0 | 0.00 | 0.00 | 0.00 | 70 | 1015.5 |
| 20260506122842 | 44 | 248 | 1.0 | 1.0 | 0.00 | 0.00 | 0.00 | 70 | 1015.6 |
| 20260506122339 | 44 | 324 | 2.0 | 2.0 | 0.00 | 0.00 | 0.00 | 70 | 1015.4 |
| 20260506121837 | 44 | 213 | 1.0 | 2.0 | 0.00 | 0.00 | 0.00 | 70 | 1015.4 |
| 20260506121334 | 44 | 255 | 2.0 | 2.0 | 0.00 | 0.00 | 0.00 | 72 | 1015.4 |
| 20260506120831 | 44 | 262 | 1.0 | 1.0 | 0.00 | 0.00 | 0.00 | 72 | 1015.3 |
| 20260506120329 | 44 | 256 | 1.0 | 1.0 | 0.00 | 0.00 | 0.00 | 73 | 1015.2 |
| 20260506115826 | 44 | 244 | 2.0 | 2.0 | 0.00 | 0.00 | 0.00 | 73 | 1015.1 |
| 20260506115324 | 44 | 269 | 1.0 | 1.0 | 0.00 | 0.00 | 0.00 | 73 | 1014.8 |
| 20260506114822 | 44 | 267 | 1.0 | 2.0 | 0.00 | 0.00 | 0.00 | 73 | 1015.0 |
| 20260506114319 | 44 | 244 | 0.0 | 0.0 | 0.00 | 0.00 | 0.00 | 73 | 1014.5 |
| 20260506113818 | 44 | 243 | 0.0 | 0.0 | 0.00 | 0.00 | 0.00 | 73 | 1014.4 |
| 20260506113315 | 43 | 237 | 1.0 | 1.0 | 0.00 | 0.00 | 0.00 | 73 | 1014.5 |
| 20260506112811 | 43 | 260 | 1.0 | 1.0 | 0.00 | 0.00 | 0.00 | 73 | 1014.1 |
| 20260506112309 | 43 | 315 | 1.0 | 2.0 | 0.00 | 0.00 | 0.00 | 73 | 1014.0 |
| 20260506111806 | 43 | 300 | 0.0 | 0.0 | 0.00 | 0.00 | 0.00 | 73 | 1013.9 |
| 20260506111304 | 44 | 301 | 2.0 | 2.0 | 0.00 | 0.00 | 0.00 | 73 | 1014.0 |
| 20260506110801 | 44 | 263 | 1.0 | 1.0 | 0.00 | 0.00 | 0.00 | 73 | 1014.2 |
| 20260506110258 | 44 | 239 | 1.0 | 1.0 | 0.00 | 0.00 | 0.00 | 73 | 1013.8 |
| 20260506105754 | 44 | 253 | 0.0 | 1.0 | 0.00 | 0.00 | 0.00 | 72 | 1013.6 |
| 20260506105252 | 44 | 267 | 1.0 | 1.0 | 0.00 | 0.00 | 0.00 | 73 | 1013.8 |
| 20260506104749 | 44 | 240 | 1.0 | 1.0 | 0.00 | 0.00 | 0.00 | 73 | 1013.9 |
| 20260506104247 | 44 | 284 | 1.0 | 1.0 | 0.00 | 0.00 | 0.00 | 73 | 1013.9 |
| 20260506103744 | 44 | 229 | 1.0 | 1.0 | 0.00 | 0.00 | 0.00 | 73 | 1014.0 |
| 20260506103241 | 44 | 289 | 1.0 | 2.0 | 0.00 | 0.00 | 0.00 | 72 | 1013.8 |
| 20260506102739 | 44 | 231 | 1.0 | 2.0 | 0.00 | 0.00 | 0.00 | 72 | 1013.7 |
| 20260506102237 | 44 | 281 | 1.0 | 1.0 | 0.00 | 0.00 | 0.00 | 73 | 1013.5 |
| 20260506101733 | 44 | 296 | 0.0 | 0.0 | 0.00 | 0.00 | 0.00 | 73 | 1013.2 |
| 20260506101230 | 44 | 248 | 1.0 | 1.0 | 0.00 | 0.00 | 0.00 | 72 | 1013.3 |
| 20260506100728 | 45 | 256 | 0.0 | 1.0 | 0.00 | 0.00 | 0.00 | 72 | 1013.2 |
| 20260506100226 | 45 | 311 | 1.0 | 2.0 | 0.00 | 0.00 | 0.00 | 71 | 1013.2 |
| 20260506095724 | 45 | 261 | 1.0 | 1.0 | 0.00 | 0.00 | 0.00 | 71 | 1013.2 |
| 20260506095220 | 45 | 297 | 1.0 | 1.0 | 0.00 | 0.00 | 0.00 | 70 | 1012.9 |
| 20260506094717 | 45 | 291 | 0.0 | 1.0 | 0.00 | 0.00 | 0.00 | 69 | 1012.9 |
| 20260506094215 | 45 | 292 | 1.0 | 1.0 | 0.00 | 0.00 | 0.00 | 70 | 1013.0 |
| 20260506093714 | 45 | 338 | 2.0 | 2.0 | 0.00 | 0.00 | 0.00 | 70 | 1013.2 |
| 20260506093210 | 45 | 353 | 2.0 | 3.0 | 0.00 | 0.00 | 0.00 | 71 | 1013.0 |
| 20260506092709 | 45 | 315 | 1.0 | 1.0 | 0.00 | 0.00 | 0.00 | 70 | 1013.2 |
| 20260506092206 | 45 | 312 | 1.0 | 1.0 | 0.00 | 0.00 | 0.00 | 71 | 1013.2 |
| 20260506091704 | 45 | 302 | 0.0 | 0.0 | 0.00 | 0.00 | 0.00 | 70 | 1013.0 |
| 20260506091201 | 45 | 280 | 0.0 | 0.0 | 0.00 | 0.00 | 0.00 | 70 | 1013.0 |
| 20260506090658 | 45 | 297 | 1.0 | 1.0 | 0.00 | 0.00 | 0.00 | 70 | 1013.1 |
| 20260506090155 | 46 | 265 | 0.0 | 1.0 | 0.00 | 0.00 | 0.00 | 70 | 1013.1 |
| 20260506085652 | 46 | 314 | 1.0 | 1.0 | 0.00 | 0.00 | 0.00 | 69 | 1013.1 |
| 20260506085148 | 46 | 295 | 1.0 | 1.0 | 0.00 | 0.00 | 0.00 | 69 | 1013.4 |
| 20260506084645 | 46 | 280 | 0.0 | 0.0 | 0.00 | 0.00 | 0.00 | 69 | 1013.0 |
| 20260506084141 | 46 | 295 | 1.0 | 1.0 | 0.00 | 0.00 | 0.00 | 68 | 1013.1 |
| 20260506083638 | 46 | 288 | 0.0 | 0.0 | 0.00 | 0.00 | 0.00 | 69 | 1012.9 |
| 20260506083136 | 46 | 295 | 0.0 | 1.0 | 0.00 | 0.00 | 0.00 | 68 | 1012.8 |
| 20260506082633 | 46 | 280 | 0.0 | 0.0 | 0.00 | 0.00 | 0.00 | 69 | 1012.8 |
| 20260506082128 | 46 | 273 | 1.0 | 1.0 | 0.00 | 0.00 | 0.00 | 68 | 1012.8 |
| 20260506081626 | 46 | 297 | 1.0 | 1.0 | 0.00 | 0.00 | 0.00 | 67 | 1012.5 |
| 20260506081124 | 47 | 299 | 0.0 | 0.0 | 0.00 | 0.00 | 0.00 | 67 | 1012.5 |
| 20260506080622 | 47 | 295 | 1.0 | 1.0 | 0.00 | 0.00 | 0.00 | 67 | 1012.4 |
| 20260506080118 | 47 | 317 | 1.0 | 1.0 | 0.00 | 0.00 | 0.00 | 67 | 1012.4 |
| 20260506073102 | 48 | 20 | 1.0 | 2.0 | 0.00 | 0.00 | 0.00 | 67 | 1012.6 |
| 20260506072558 | 48 | 312 | 0.0 | 0.0 | 0.00 | 0.00 | 0.00 | 67 | 1012.6 |
| 20260506072056 | 48 | 328 | 0.0 | 0.0 | 0.00 | 0.00 | 0.00 | 68 | 1012.7 |
| 20260506071554 | 48 | 336 | 3.0 | 5.0 | 0.00 | 0.00 | 0.00 | 66 | 1012.5 |
| 20260506071051 | 48 | 358 | 1.0 | 3.0 | 0.00 | 0.00 | 0.00 | 66 | 1012.3 |
| 20260506070548 | 48 | 335 | 4.0 | 5.0 | 0.00 | 0.00 | 0.00 | 66 | 1012.3 |
| 20260506062022 | 49 | 329 | 1.0 | 1.0 | 0.00 | 0.00 | 0.00 | 70 | 1012.4 |
| 20260506061518 | 49 | 54 | 1.0 | 1.0 | 0.00 | 0.00 | 0.00 | 71 | 1012.2 |
| 20260506061016 | 48 | 313 | 2.0 | 2.0 | 0.00 | 0.00 | 0.00 | 72 | 1012.2 |
| 20260506060514 | 49 | 285 | 1.0 | 2.0 | 0.00 | 0.00 | 0.00 | 72 | 1012.0 |
| 20260506050943 | 47 | 259 | 1.0 | 1.0 | 0.00 | 0.00 | 0.00 | 77 | 1011.3 |
| 20260506050441 | 48 | 259 | 1.0 | 1.0 | 0.00 | 0.00 | 0.00 | 77 | 1011.2 |
| 20260506044931 | 48 | 250 | 2.0 | 2.0 | 0.00 | 0.00 | 0.00 | 76 | 1011.2 |
| 20260506044430 | 48 | 253 | 1.0 | 2.0 | 0.00 | 0.00 | 0.00 | 77 | 1011.1 |
| 20260506043926 | 48 | 262 | 1.0 | 2.0 | 0.00 | 0.00 | 0.00 | 77 | 1011.2 |
| 20260506043423 | 48 | 246 | 1.0 | 2.0 | 0.00 | 0.00 | 0.00 | 77 | 1011.1 |
| 20260506042921 | 48 | 252 | 2.0 | 2.0 | 0.00 | 0.00 | 0.00 | 77 | 1011.2 |
| 20260506042420 | 48 | 252 | 1.0 | 2.0 | 0.00 | 0.00 | 0.00 | 78 | 1011.3 |
| 20260506041918 | 48 | 246 | 2.0 | 2.0 | 0.00 | 0.00 | 0.00 | 78 | 1011.0 |
| 20260506041415 | 48 | 248 | 1.0 | 1.0 | 0.00 | 0.00 | 0.00 | 78 | 1010.9 |
| 20260506040912 | 48 | 247 | 1.0 | 1.0 | 0.00 | 0.00 | 0.00 | 77 | 1011.0 |
| 20260506040410 | 48 | 248 | 2.0 | 2.0 | 0.00 | 0.00 | 0.00 | 77 | 1011.0 |
| 20260506035905 | 49 | 244 | 0.0 | 1.0 | 0.00 | 0.00 | 0.00 | 77 | 1011.2 |
| 20260506035403 | 49 | 243 | 0.0 | 0.0 | 0.00 | 0.00 | 0.00 | 76 | 1011.1 |
| 20260506034900 | 49 | 247 | 0.0 | 0.0 | 0.00 | 0.00 | 0.00 | 76 | 1011.0 |
| 20260506034358 | 49 | 248 | 0.0 | 0.0 | 0.00 | 0.00 | 0.00 | 75 | 1011.1 |
| 20260506033854 | 50 | 248 | 0.0 | 1.0 | 0.00 | 0.00 | 0.00 | 74 | 1010.9 |
| 20260506033351 | 50 | 248 | 0.0 | 1.0 | 0.00 | 0.00 | 0.00 | 74 | 1011.0 |
| 20260506032848 | 50 | 248 | 0.0 | 0.0 | 0.00 | 0.00 | 0.00 | 73 | 1011.3 |
| 20260506032345 | 50 | 248 | 0.0 | 0.0 | 0.00 | 0.00 | 0.00 | 73 | 1011.2 |
| 20260506031842 | 50 | 248 | 1.0 | 1.0 | 0.00 | 0.00 | 0.00 | 73 | 1011.3 |
| 20260506031339 | 50 | 249 | 1.0 | 1.0 | 0.00 | 0.00 | 0.00 | 73 | 1011.5 |
| 20260506030837 | 50 | 250 | 2.0 | 2.0 | 0.00 | 0.00 | 0.00 | 73 | 1011.5 |
| 20260506030335 | 50 | 252 | 1.0 | 1.0 | 0.00 | 0.00 | 0.00 | 73 | 1011.1 |
| 20260506025831 | 50 | 251 | 1.0 | 1.0 | 0.00 | 0.00 | 0.00 | 73 | 1011.5 |
| 20260506025327 | 50 | 236 | 0.0 | 1.0 | 0.00 | 0.00 | 0.00 | 73 | 1011.3 |
| 20260506024825 | 50 | 232 | 0.0 | 1.0 | 0.00 | 0.00 | 0.00 | 73 | 1011.3 |
| 20260506024321 | 51 | 231 | 1.0 | 1.0 | 0.00 | 0.00 | 0.00 | 73 | 1011.7 |
| 20260506023818 | 51 | 246 | 0.0 | 0.0 | 0.00 | 0.00 | 0.00 | 73 | 1011.3 |
| 20260506023314 | 51 | 247 | 0.0 | 0.0 | 0.00 | 0.00 | 0.00 | 72 | 1011.3 |
| 20260506022811 | 51 | 247 | 0.0 | 0.0 | 0.00 | 0.00 | 0.00 | 70 | 1011.2 |
| 20260506022309 | 51 | 248 | 0.0 | 0.0 | 0.00 | 0.00 | 0.00 | 68 | 1011.2 |
| 20260506021807 | 51 | 248 | 1.0 | 1.0 | 0.00 | 0.00 | 0.00 | 68 | 1011.0 |
| 20260506021303 | 51 | 247 | 0.0 | 0.0 | 0.00 | 0.00 | 0.00 | 69 | 1010.9 |
| 20260506020800 | 51 | 247 | 1.0 | 1.0 | 0.00 | 0.00 | 0.00 | 70 | 1010.7 |
| 20260506020258 | 51 | 246 | 0.0 | 0.0 | 0.00 | 0.00 | 0.00 | 70 | 1010.8 |
| 20260506015756 | 51 | 246 | 0.0 | 0.0 | 0.00 | 0.00 | 0.00 | 71 | 1010.5 |
| 20260506015253 | 51 | 246 | 0.0 | 0.0 | 0.00 | 0.00 | 0.00 | 71 | 1010.7 |
| 20260506014749 | 51 | 246 | 0.0 | 0.0 | 0.00 | 0.00 | 0.00 | 71 | 1010.4 |
| 20260506014246 | 51 | 246 | 0.0 | 1.0 | 0.00 | 0.00 | 0.00 | 70 | 1010.5 |
| 20260506013743 | 51 | 246 | 1.0 | 1.0 | 0.00 | 0.00 | 0.00 | 69 | 1010.6 |
| 20260506013240 | 51 | 246 | 0.0 | 0.0 | 0.00 | 0.00 | 0.00 | 68 | 1010.6 |
| 20260506012737 | 51 | 246 | 1.0 | 1.0 | 0.00 | 0.00 | 0.00 | 68 | 1010.4 |
| 20260506012234 | 51 | 246 | 0.0 | 1.0 | 0.00 | 0.00 | 0.00 | 66 | 1010.5 |
| 20260506011731 | 51 | 246 | 0.0 | 0.0 | 0.00 | 0.00 | 0.00 | 66 | 1010.2 |
| 20260506011227 | 52 | 250 | 0.0 | 0.0 | 0.00 | 0.00 | 0.00 | 66 | 1010.3 |
| 20260506010726 | 52 | 250 | 0.0 | 0.0 | 0.00 | 0.00 | 0.00 | 65 | 1010.1 |
| 20260506010223 | 52 | 254 | 1.0 | 1.0 | 0.00 | 0.00 | 0.00 | 64 | 1010.4 |
| 20260506005720 | 52 | 252 | 1.0 | 1.0 | 0.00 | 0.00 | 0.00 | 63 | 1010.5 |
| 20260506005216 | 52 | 245 | 0.0 | 0.0 | 0.00 | 0.00 | 0.00 | 63 | 1010.3 |
| 20260506004712 | 52 | 244 | 1.0 | 1.0 | 0.00 | 0.00 | 0.00 | 62 | 1010.2 |
| 20260506004210 | 52 | 244 | 0.0 | 0.0 | 0.00 | 0.00 | 0.00 | 63 | 1010.0 |
| 20260506003706 | 52 | 244 | 0.0 | 0.0 | 0.00 | 0.00 | 0.00 | 63 | 1010.0 |
| 20260506003203 | 52 | 247 | 0.0 | 1.0 | 0.00 | 0.00 | 0.00 | 65 | 1010.1 |
| 20260506002658 | 52 | 249 | 0.0 | 0.0 | 0.00 | 0.00 | 0.00 | 62 | 1009.9 |
| 20260506002155 | 53 | 249 | 0.0 | 0.0 | 0.00 | 0.00 | 0.00 | 61 | 1010.2 |
| 20260506001650 | 53 | 250 | 1.0 | 1.0 | 0.00 | 0.00 | 0.00 | 59 | 1010.1 |
| 20260506001148 | 53 | 248 | 0.0 | 0.0 | 0.00 | 0.00 | 0.00 | 61 | 1010.1 |
| 20260506000645 | 53 | 247 | 1.0 | 1.0 | 0.00 | 0.00 | 0.00 | 59 | 1010.1 |
| 20260506000143 | 53 | 252 | 0.0 | 1.0 | 0.00 | 0.00 | 0.00 | 59 | 1010.3 |
| 20260505235640 | 53 | 236 | 2.0 | 2.0 | 0.00 | 0.00 | 0.00 | 58 | 1010.1 |
| 20260505235138 | 53 | 265 | 1.0 | 1.0 | 0.00 | 0.00 | 0.00 | 58 | 1010.2 |
| 20260505234634 | 53 | 249 | 1.0 | 1.0 | 0.00 | 0.00 | 0.00 | 58 | 1010.0 |
| 20260505234131 | 53 | 243 | 0.0 | 0.0 | 0.00 | 0.00 | 0.00 | 59 | 1010.2 |
| 20260505233628 | 53 | 245 | 0.0 | 1.0 | 0.00 | 0.00 | 0.00 | 58 | 1010.1 |
| 20260505233126 | 53 | 248 | 0.0 | 0.0 | 0.00 | 0.00 | 0.00 | 59 | 1010.2 |
| 20260505232623 | 53 | 248 | 0.0 | 1.0 | 0.00 | 0.00 | 0.00 | 58 | 1010.0 |
| 20260505232121 | 54 | 260 | 1.0 | 2.0 | 0.00 | 0.00 | 0.00 | 54 | 1010.3 |
| 20260505231617 | 54 | 244 | 0.0 | 0.0 | 0.00 | 0.00 | 0.00 | 55 | 1010.2 |
| 20260505231116 | 54 | 244 | 1.0 | 1.0 | 0.00 | 0.00 | 0.00 | 54 | 1010.3 |
| 20260505230614 | 54 | 241 | 0.0 | 0.0 | 0.00 | 0.00 | 0.00 | 56 | 1010.3 |
| 20260505230110 | 54 | 255 | 0.0 | 0.0 | 0.00 | 0.00 | 0.00 | 56 | 1010.1 |
| 20260505225606 | 54 | 245 | 1.0 | 1.0 | 0.00 | 0.00 | 0.00 | 54 | 1010.1 |
| 20260505225102 | 54 | 250 | 1.0 | 1.0 | 0.00 | 0.00 | 0.00 | 54 | 1010.2 |
| 20260505224559 | 54 | 257 | 2.0 | 2.0 | 0.00 | 0.00 | 0.00 | 52 | 1010.2 |
| 20260505224057 | 54 | 254 | 0.0 | 0.0 | 0.00 | 0.00 | 0.00 | 54 | 1010.0 |
| 20260505223554 | 54 | 191 | 1.0 | 1.0 | 0.00 | 0.00 | 0.00 | 52 | 1010.2 |
| 20260505223050 | 54 | 270 | 0.0 | 1.0 | 0.00 | 0.00 | 0.00 | 54 | 1010.0 |
| 20260505222546 | 54 | 302 | 1.0 | 1.0 | 0.00 | 0.00 | 0.00 | 52 | 1009.9 |
| 20260505222043 | 54 | 328 | 3.0 | 3.0 | 0.00 | 0.00 | 0.00 | 51 | 1010.1 |
| 20260505221540 | 55 | 67 | 2.0 | 3.0 | 0.00 | 0.00 | 0.00 | 52 | 1010.2 |
| 20260505221036 | 54 | 304 | 3.0 | 3.0 | 0.00 | 0.00 | 0.00 | 52 | 1010.0 |
| 20260505220533 | 55 | 340 | 2.0 | 2.0 | 0.00 | 0.00 | 0.00 | 52 | 1010.2 |
| 20260505220031 | 55 | 303 | 2.0 | 2.0 | 0.00 | 0.00 | 0.00 | 50 | 1010.1 |
| 20260505215529 | 55 | 290 | 1.0 | 1.0 | 0.00 | 0.00 | 0.00 | 50 | 1010.2 |
| 20260505215027 | 54 | 38 | 1.0 | 1.0 | 0.00 | 0.00 | 0.00 | 51 | 1010.3 |
| 20260505214525 | 55 | 19 | 3.0 | 6.0 | 0.00 | 0.00 | 0.00 | 50 | 1010.0 |
| 20260505214021 | 55 | 3 | 2.0 | 3.0 | 0.00 | 0.00 | 0.00 | 50 | 1010.2 |
| 20260505213519 | 55 | 260 | 1.0 | 2.0 | 0.00 | 0.00 | 0.00 | 51 | 1010.1 |
| 20260505213015 | 55 | 278 | 1.0 | 1.0 | 0.00 | 0.00 | 0.00 | 50 | 1010.4 |
| 20260505212512 | 55 | 319 | 1.0 | 1.0 | 0.00 | 0.00 | 0.00 | 53 | 1010.7 |
| 20260505212009 | 55 | 242 | 2.0 | 3.0 | 0.00 | 0.00 | 0.00 | 51 | 1010.6 |
| 20260505211506 | 55 | 272 | 1.0 | 1.0 | 0.00 | 0.00 | 0.00 | 51 | 1010.4 |
| 20260505211003 | 55 | 237 | 2.0 | 5.0 | 0.00 | 0.00 | 0.00 | 48 | 1010.4 |
| 20260505210459 | 55 | 333 | 3.0 | 3.0 | 0.00 | 0.00 | 0.00 | 49 | 1010.6 |
| 20260505205956 | 55 | 269 | 1.0 | 1.0 | 0.00 | 0.00 | 0.00 | 50 | 1010.5 |
| 20260505205455 | 55 | 167 | 1.0 | 2.0 | 0.00 | 0.00 | 0.00 | 48 | 1010.8 |
| 20260505204951 | 55 | 351 | 2.0 | 3.0 | 0.00 | 0.00 | 0.00 | 48 | 1010.5 |
| 20260505204449 | 56 | 341 | 3.0 | 3.0 | 0.00 | 0.00 | 0.00 | 49 | 1010.7 |
| 20260505203946 | 56 | 249 | 1.0 | 2.0 | 0.00 | 0.00 | 0.00 | 50 | 1010.6 |
| 20260505203442 | 56 | 263 | 1.0 | 2.0 | 0.00 | 0.00 | 0.00 | 49 | 1010.5 |
| 20260505202939 | 56 | 216 | 2.0 | 2.0 | 0.00 | 0.00 | 0.00 | 49 | 1010.6 |
| 20260505202435 | 55 | 6 | 3.0 | 3.0 | 0.00 | 0.00 | 0.00 | 49 | 1010.7 |
| 20260505201932 | 56 | 334 | 4.0 | 6.0 | 0.00 | 0.00 | 0.00 | 49 | 1010.5 |
| 20260505201429 | 56 | 278 | 5.0 | 6.0 | 0.00 | 0.00 | 0.00 | 48 | 1010.3 |
| 20260505200927 | 56 | 283 | 2.0 | 2.0 | 0.00 | 0.00 | 0.00 | 49 | 1010.4 |
| 20260505200424 | 56 | 296 | 5.0 | 6.0 | 0.00 | 0.00 | 0.00 | 50 | 1010.6 |
| 20260505195919 | 56 | 268 | 1.0 | 2.0 | 0.00 | 0.00 | 0.00 | 50 | 1010.8 |
| 20260505195417 | 56 | 281 | 3.0 | 5.0 | 0.00 | 0.00 | 0.00 | 49 | 1010.8 |
| 20260505194914 | 55 | 212 | 1.0 | 1.0 | 0.00 | 0.00 | 0.00 | 52 | 1010.5 |
| 20260505194412 | 55 | 18 | 3.0 | 5.0 | 0.00 | 0.00 | 0.00 | 50 | 1010.9 |
| 20260505193911 | 55 | 6 | 6.0 | 8.0 | 0.00 | 0.00 | 0.00 | 52 | 1011.0 |
| 20260505193410 | 56 | 70 | 2.0 | 2.0 | 0.00 | 0.00 | 0.00 | 50 | 1011.0 |
| 20260505192907 | 55 | 341 | 2.0 | 2.0 | 0.00 | 0.00 | 0.00 | 51 | 1011.0 |
| 20260505192405 | 56 | 278 | 0.0 | 1.0 | 0.00 | 0.00 | 0.00 | 51 | 1011.1 |
| 20260505191902 | 57 | 249 | 1.0 | 1.0 | 0.00 | 0.00 | 0.00 | 52 | 1011.6 |
| 20260505191401 | 55 | 276 | 1.0 | 2.0 | 0.00 | 0.00 | 0.00 | 49 | 1011.7 |
| 20260505190857 | 54 | 321 | 3.0 | 5.0 | 0.00 | 0.00 | 0.00 | 51 | 1011.5 |
| 20260505190353 | 54 | 286 | 3.0 | 5.0 | 0.00 | 0.00 | 0.00 | 48 | 1011.6 |
| 20260505185848 | 55 | 22 | 7.0 | 8.0 | 0.00 | 0.00 | 0.00 | 48 | 1011.3 |
| 20260505185345 | 55 | 229 | 0.0 | 0.0 | 0.00 | 0.00 | 0.00 | 50 | 1011.5 |
| 20260505184841 | 55 | 153 | 1.0 | 1.0 | 0.00 | 0.00 | 0.00 | 51 | 1011.6 |
| 20260505184338 | 54 | 241 | 0.0 | 0.0 | 0.00 | 0.00 | 0.00 | 52 | 1011.9 |
| 20260505183835 | 53 | 352 | 0.0 | 1.0 | 0.00 | 0.00 | 0.00 | 52 | 1011.7 |
| 20260505183332 | 54 | 276 | 1.0 | 1.0 | 0.00 | 0.00 | 0.00 | 53 | 1011.7 |
| 20260505182829 | 53 | 20 | 1.0 | 2.0 | 0.00 | 0.00 | 0.00 | 51 | 1012.0 |
| 20260505182326 | 53 | 263 | 1.0 | 1.0 | 0.00 | 0.00 | 0.00 | 55 | 1012.0 |
| 20260505181822 | 53 | 243 | 1.0 | 1.0 | 0.00 | 0.00 | 0.00 | 52 | 1011.9 |
| 20260505181320 | 53 | 302 | 1.0 | 1.0 | 0.00 | 0.00 | 0.00 | 53 | 1011.9 |
| 20260505180816 | 53 | 341 | 1.0 | 1.0 | 0.00 | 0.00 | 0.00 | 51 | 1011.8 |
| 20260505180313 | 54 | 269 | 1.0 | 2.0 | 0.00 | 0.00 | 0.00 | 54 | 1012.2 |
| 20260505175809 | 53 | 262 | 1.0 | 1.0 | 0.00 | 0.00 | 0.00 | 53 | 1011.9 |
| 20260505175306 | 53 | 162 | 0.0 | 1.0 | 0.00 | 0.00 | 0.00 | 51 | 1011.9 |
| 20260505174802 | 53 | 123 | 2.0 | 2.0 | 0.00 | 0.00 | 0.00 | 56 | 1011.7 |
| 20260505174300 | 54 | 285 | 0.0 | 1.0 | 0.00 | 0.00 | 0.00 | 54 | 1011.9 |
| 20260505173755 | 53 | 253 | 1.0 | 1.0 | 0.00 | 0.00 | 0.00 | 53 | 1011.9 |
| 20260505173252 | 52 | 335 | 2.0 | 2.0 | 0.00 | 0.00 | 0.00 | 58 | 1011.7 |
| 20260505172749 | 53 | 314 | 1.0 | 2.0 | 0.00 | 0.00 | 0.00 | 54 | 1012.0 |
| 20260505172246 | 53 | 330 | 1.0 | 2.0 | 0.00 | 0.00 | 0.00 | 53 | 1012.1 |
| 20260505171746 | 52 | 303 | 2.0 | 3.0 | 0.00 | 0.00 | 0.00 | 55 | 1011.9 |
| 20260505171243 | 52 | 19 | 3.0 | 3.0 | 0.00 | 0.00 | 0.00 | 56 | 1012.0 |
| 20260505170740 | 51 | 323 | 2.0 | 2.0 | 0.00 | 0.00 | 0.00 | 53 | 1012.1 |
| 20260505170237 | 51 | 352 | 3.0 | 5.0 | 0.00 | 0.00 | 0.00 | 53 | 1012.1 |
| 20260505165732 | 52 | 260 | 0.0 | 1.0 | 0.00 | 0.00 | 0.00 | 55 | 1012.0 |
| 20260505165229 | 52 | 243 | 1.0 | 1.0 | 0.00 | 0.00 | 0.00 | 54 | 1012.4 |
| 20260505164724 | 52 | 260 | 2.0 | 2.0 | 0.00 | 0.00 | 0.00 | 53 | 1012.3 |
| 20260505164221 | 52 | 265 | 0.0 | 0.0 | 0.00 | 0.00 | 0.00 | 56 | 1012.1 |
| 20260505163720 | 51 | 291 | 1.0 | 1.0 | 0.00 | 0.00 | 0.00 | 57 | 1012.2 |
| 20260505163218 | 51 | 320 | 0.0 | 1.0 | 0.00 | 0.00 | 0.00 | 56 | 1012.1 |
| 20260505162715 | 51 | 321 | 3.0 | 3.0 | 0.00 | 0.00 | 0.00 | 55 | 1011.8 |
| 20260505162212 | 51 | 312 | 0.0 | 1.0 | 0.00 | 0.00 | 0.00 | 56 | 1011.8 |
| 20260505161709 | 51 | 282 | 1.0 | 1.0 | 0.00 | 0.00 | 0.00 | 56 | 1011.8 |
| 20260505161206 | 51 | 350 | 3.0 | 3.0 | 0.00 | 0.00 | 0.00 | 55 | 1011.8 |
| 20260505160704 | 51 | 49 | 1.0 | 1.0 | 0.00 | 0.00 | 0.00 | 56 | 1011.6 |
| 20260505160201 | 51 | 14 | 3.0 | 3.0 | 0.00 | 0.00 | 0.00 | 58 | 1011.6 |
| 20260505153140 | 51 | 229 | 0.0 | 1.0 | 0.00 | 0.00 | 0.00 | 59 | 1011.7 |
| 20260505152637 | 51 | 267 | 1.0 | 1.0 | 0.00 | 0.00 | 0.00 | 60 | 1011.7 |
| 20260505152133 | 50 | 251 | 0.0 | 0.0 | 0.00 | 0.00 | 0.00 | 60 | 1011.7 |
| 20260505151629 | 50 | 298 | 0.0 | 1.0 | 0.00 | 0.00 | 0.00 | 59 | 1011.7 |
| 20260505151126 | 50 | 271 | 1.0 | 1.0 | 0.00 | 0.00 | 0.00 | 59 | 1011.7 |
| 20260505150622 | 50 | 340 | 2.0 | 2.0 | 0.00 | 0.00 | 0.00 | 57 | 1011.5 |
| 20260505150119 | 50 | 40 | 2.0 | 2.0 | 0.00 | 0.00 | 0.00 | 61 | 1011.1 |
| 20260505140547 | 50 | 358 | 2.0 | 2.0 | 0.00 | 0.00 | 0.00 | 64 | 1010.2 |